sat.trackr.live / text

‹ back to catalog

LES-5

NORAD 2866 · 1967-066E

PAYLOAD ACTIVE UNKNOWN

§ Identity

Operator
Country
US
Launch date
1967-07-01
Launch site
AFETR
Launch vehicle
Mass (kg)
RCS (m²)
2.56

External: N2YO · Heavens-Above · Gunter

§ Orbital elements

Epoch: 2026-05-25T01:51:40.821120Z

Period
1,315.96 min
Inclination
2.5705°
Eccentricity
0.0052921
Mean motion
1.09425424 rev/d
Perigee alt
33,190.6 km
Apogee alt
33,611.6 km
Semi-major
39,779.2 km
B*
0.0000e+0
RAAN
97.0113°
Arg perigee
213.5061°
Mean anomaly
284.3126°
Rev number
13,078

§ Raw data

LES-51 02866U 67066E   26145.07755580 -.00000065  00000+0  00000+0 0  99922 02866   2.5705  97.0113 0052921 213.5061 284.3126  1.09425424130787

JSON: /api/v1/satellites/2866 · /tle

For live sub-satellite position, see the globe view (requires WebGL).

§ Visibility from observer

Set your observer location to see the next 7 days of passes ≥ 10°. The values pass through the URL so the page stays shareable.

No JS? Fill the form by hand. The geolocation button needs JavaScript.